星链-5199 (STARLINK-5199 )

导读

STARLINK-5199是美国太空探索技术公司(SpaceX)星链(Starlink)互联网卫星项目中的一颗卫星,于2022年10月28日发射入轨,属于星链低轨卫星星座组网卫星,旨在为全球提供高速低延迟的宽带互联网服务,进一步扩充星链星座的在轨卫星规模,提升全球覆盖性能与服务容量。

Basic Information
目录编号:
54201
目录名称:
STARLINK-5199
国际标识:
2022-141AW
轨道中心:
EARTH
卫星名称:
星链-5199
卫星全名:
星链-5199 (STARLINK-5199 )
卫星状态:
在轨 (已飞行1328 天)
发射日期:
2022-10-28 UTC
国别 :
美国 (US)
星等 :
--
Orbit Information
数据来源 国际轨道数据 AOE轨道数据
星历时间 2026-06-16T21:23:49+0800
19小时前
查看轨道信息
2026-06-14T15:00:00+0800
3天前
查看轨道信息
半长轴 6917.9km 6917.875km
偏心率 0.0001247 0.0001301
轨道倾角 53.161° 53.160°
近地点辐角 92.430° 69.936°
升交点赤经 270.184° 280.375°
平近点角 267.683° 212.020°
近地点 538.9km 538.837km
远地点 540.626km 540.639km
周期 95.438分钟 95.437分钟
每日圈数 15.088339 15.088419
Detailed Information
固有亮度:
5
最大亮度:
2.5
卫星平台:
Starlink v1.5
覆盖范围:
全球
运营商:
太空探索技术公司
运营商所在国:
美国
制造商(研发单位):
太空探索技术公司
制造商所在国:
美国
使用方式:
暂无
Satellite Introduction
星链(Starlink)计划是由太空探索技术公司(SpaceX)提出的一个巨型低轨卫星互联网星座项目,计划在2019年至2024年间在太空搭建由约1.2万颗卫星组成的“星链”网络,其中1584颗将部署在地球上空550千米处的近地轨道,并从2020年开始工作。该卫星仍在工作。
2D Orbit Map
3D Orbit Map
Orbit Altitude Analysis Chart
Orbit Inclination Analysis Chart
Orbit Comprehensive Analysis Chart
View Comprehensive Chart